Arlington, WA
on Thursday, November 15, 2012

Thursday
Previous Day Next Day
Daily Summary
 ActualAverageRecord
Temperature
Mean Temperature °F °F  
Max Temperature 48°F 60°F 60°F (1976)
Min Temperature 30°F 40°F 17°F (2014)
Degree Days
Heating Degree Days 26    
Moisture
Dew Point 34°F   
Average Humidity 91    
Maximum Humidity 100    
Minimum Humidity 76    
Precipitation
Precipitation 0.00 in in in ()
Wind
Wind Speed 0 mph   
Max Wind Speed 8 mph   
Max Gust Speed mph   
Visibility 3 miles   
Events     
Averages and records for this station are not official NWS values.
Key: T is trace of precipitation, MM is missing value
Source: NWS Daily Summary
Seasonal Weather Averages
Time(PST)TemperatureDew PointHumidity Pressure Visibility Wind DirectionWind SpeedGust SpeedPrecipitationEvents Conditions
12:15 AM 35.6°F 33.8°F 93% 30.30 in 0.2 miles Calm Calm - N/A   Overcast
12:35 AM 35.6°F 33.8°F 93% 30.30 in 0.2 miles Calm Calm - N/A   Overcast
12:55 AM 35.6°F 33.8°F 93% 30.29 in 0.2 miles Calm Calm - N/A   Overcast
1:15 AM 33.8°F 33.8°F 100% 30.28 in 0.2 miles Calm Calm - N/A   Overcast
1:35 AM 33.8°F 32.0°F 93% 30.28 in 0.2 miles Calm Calm - N/A   Overcast
1:55 AM 33.8°F 30.2°F 87% 30.28 in 0.2 miles Calm Calm - N/A   Overcast
2:15 AM 33.8°F 30.2°F 87% 30.27 in 0.2 miles Calm Calm - N/A   Overcast
2:35 AM 33.8°F 30.2°F 87% 30.27 in 0.2 miles Calm Calm - N/A   Overcast
2:55 AM 33.8°F 30.2°F 87% 30.26 in 0.2 miles Calm Calm - N/A   Overcast
3:15 AM 32.0°F 30.2°F 93% 30.25 in 0.2 miles Calm Calm - N/A   Overcast
3:35 AM 30.2°F 30.2°F 100% 30.25 in 0.2 miles Calm Calm - N/A   Overcast
3:55 AM 32.0°F 30.2°F 93% 30.24 in 0.2 miles Calm Calm - N/A   Overcast
4:15 AM 30.2°F 28.4°F 93% 30.24 in 0.5 miles Calm Calm - N/A   Overcast
4:35 AM 30.2°F 28.4°F 93% 30.23 in 0.2 miles Calm Calm - N/A   Overcast
4:55 AM 30.2°F 28.4°F 93% 30.23 in 0.2 miles Calm Calm - N/A   Overcast
5:15 AM 30.2°F 28.4°F 93% 30.22 in 0.2 miles Calm Calm - N/A   Overcast
5:35 AM 30.2°F 28.4°F 93% 30.22 in 0.2 miles Calm Calm - N/A   Overcast
5:55 AM 30.2°F 28.4°F 93% 30.22 in 0.5 miles Calm Calm - N/A   Overcast
6:15 AM 30.2°F 28.4°F 93% 30.21 in 0.2 miles Calm Calm - N/A   Overcast
6:35 AM 30.2°F 28.4°F 93% 30.20 in 0.2 miles Calm Calm - N/A   Overcast
6:55 AM 30.2°F 28.4°F 93% 30.19 in 0.2 miles Calm Calm - N/A   Overcast
7:15 AM 30.2°F 28.4°F 93% 30.19 in 0.2 miles Calm Calm - N/A   Overcast
7:35 AM 30.2°F 28.4°F 93% 30.19 in 0.2 miles Calm Calm - N/A   Overcast
7:55 AM 30.2°F 28.4°F 93% 30.19 in 0.2 miles Calm Calm - N/A   Overcast
8:15 AM 30.2°F 28.4°F 93% 30.19 in 0.2 miles Calm Calm - N/A   Overcast
8:35 AM 30.2°F 28.4°F 93% 30.18 in 0.2 miles Calm Calm - N/A   Overcast
8:55 AM 30.2°F 28.4°F 93% 30.17 in 0.2 miles Calm Calm - N/A   Overcast
9:15 AM 32.0°F 30.2°F 93% 30.16 in 0.2 miles Calm Calm - N/A   Overcast
9:35 AM 33.8°F 30.2°F 87% 30.14 in 0.2 miles Calm Calm - N/A   Overcast
9:55 AM 33.8°F 33.8°F 100% 30.13 in 0.2 miles Calm Calm - N/A   Overcast
10:15 AM 35.6°F 33.8°F 93% 30.12 in 0.2 miles Calm Calm - N/A   Overcast
10:35 AM 37.4°F 35.6°F 93% 30.12 in 0.2 miles Calm Calm - N/A   Overcast
10:55 AM 39.2°F 37.4°F 93% 30.11 in 1.8 miles Calm Calm - N/A   Overcast
11:15 AM 39.2°F 39.2°F 100% 30.10 in 2.5 miles Calm Calm - N/A   Overcast
11:35 AM 41.0°F 39.2°F 93% 30.09 in 0.5 miles Calm Calm - N/A   Overcast
11:55 AM 41.0°F 39.2°F 93% 30.08 in 8.0 miles Calm Calm - N/A   Overcast
12:15 PM 42.8°F 39.2°F 87% 30.06 in 10.0 miles Calm Calm - N/A   Mostly Cloudy
12:35 PM 44.6°F 41.0°F 87% 30.05 in 10.0 miles Calm Calm - N/A   Scattered Clouds
12:55 PM 44.6°F 41.0°F 87% 30.05 in 10.0 miles Calm Calm - N/A   Clear
1:15 PM 46.4°F 42.8°F 87% 30.04 in 10.0 miles Calm Calm - N/A   Clear
1:35 PM 46.4°F 41.0°F 81% 30.03 in 10.0 miles Calm Calm - N/A   Clear
1:55 PM 48.2°F 42.8°F 82% 30.03 in 10.0 miles Calm Calm - N/A   Clear
2:15 PM 48.2°F 42.8°F 82% 30.03 in 10.0 miles NNW 4.6 mph - N/A   Clear
2:35 PM 48.2°F 41.0°F 76% 30.02 in 10.0 miles NNW 5.8 mph - N/A   Clear
2:55 PM 46.4°F 42.8°F 87% 30.02 in 10.0 miles NW 5.8 mph - N/A   Clear
3:15 PM 46.4°F 41.0°F 81% 30.02 in 10.0 miles WNW 6.9 mph - N/A   Clear
3:35 PM 44.6°F 39.2°F 81% 30.02 in 10.0 miles NW 6.9 mph - N/A   Clear
3:55 PM 44.6°F 39.2°F 81% 30.02 in 10.0 miles NW 8.1 mph - N/A   Clear
4:15 PM 42.8°F 39.2°F 87% 30.02 in 10.0 miles WNW 6.9 mph - N/A   Clear
4:35 PM 41.0°F 37.4°F 87% 30.01 in 10.0 miles WNW 3.5 mph - N/A   Clear
4:55 PM 42.8°F 39.2°F 87% 30.01 in 10.0 miles Calm Calm - N/A   Clear
5:15 PM 41.0°F 37.4°F 87% 30.00 in 10.0 miles Calm Calm - N/A   Clear
5:35 PM 39.2°F 37.4°F 93% 30.00 in 10.0 miles Calm Calm - N/A   Clear
5:55 PM 37.4°F 35.6°F 93% 30.00 in 3.0 miles Calm Calm - N/A   Partly Cloudy
6:15 PM 37.4°F 35.6°F 93% 30.00 in 3.0 miles Calm Calm - N/A   Scattered Clouds
6:35 PM 37.4°F 33.8°F 87% 30.00 in 5.0 miles Calm Calm - N/A   Clear
6:55 PM 35.6°F 35.6°F 100% 30.00 in 0.8 miles Calm Calm - N/A   Unknown
7:15 PM 35.6°F 33.8°F 93% 30.00 in 0.2 miles Calm Calm - N/A   Overcast
7:35 PM 35.6°F 33.8°F 93% 29.99 in 0.2 miles Calm Calm - N/A   Overcast
7:55 PM 33.8°F 32.0°F 93% 29.99 in 0.2 miles Calm Calm - N/A   Overcast
8:15 PM 35.6°F 33.8°F 93% 29.98 in 0.2 miles Calm Calm - N/A   Overcast
8:35 PM 33.8°F 32.0°F 93% 29.98 in 0.2 miles Calm Calm - N/A   Overcast
8:55 PM 35.6°F 33.8°F 93% 29.98 in 0.8 miles Calm Calm - N/A   Overcast
9:15 PM 35.6°F 33.8°F 93% 29.98 in 1.0 miles Calm Calm - N/A   Overcast
9:35 PM 35.6°F 35.6°F 100% 29.98 in 2.5 miles Calm Calm - N/A   Overcast
9:55 PM 35.6°F 32.0°F 87% 29.97 in 0.8 miles Calm Calm - N/A   Overcast
10:15 PM 35.6°F 33.8°F 93% 29.97 in 0.2 miles Calm Calm - N/A   Overcast
10:35 PM 35.6°F 33.8°F 93% 29.96 in 0.5 miles Calm Calm - N/A   Overcast
10:55 PM 35.6°F 33.8°F 93% 29.96 in 0.5 miles Calm Calm - N/A   Overcast
11:15 PM 33.8°F 33.8°F 100% 29.96 in 0.5 miles Calm Calm - N/A   Overcast
11:35 PM 33.8°F 32.0°F 93% 29.96 in 0.2 miles Calm Calm - N/A   Overcast
11:55 PM 32.0°F 30.2°F 93% 29.96 in 0.5 miles Calm Calm - N/A   Mostly Cloudy
Moon Phase
Nov. 15 Nov. 20 Nov. 28 Dec. 06 Dec. 13
Sunrise:07:16 AM (PST) Moon Rise:09:23 AM (PST)11/15
Sunset:04:29 PM (PST) Moon Set:06:21 PM (PST)11/15

Copyright © 2014 The Weather Underground, Inc.